KC3BHK-2 Weather Reports


Display with metric or nautical units.
time (UTC)temp
F
wind
direction
speed
MPH
gust
MPH
rain 1hr
in
rain 24hr
in
rain mn
in
humidity
%
barometer
mb
20260510163927 80 301 7.0 12.0 0.00 0.00 0.00
20260510163420 79 311 2.0 14.0 0.00 0.00 0.00
20260510162915 77 277 11.0 14.0 0.00 0.00 0.00
20260510162410 80 239 8.0 13.0 0.00 0.00 0.00
20260510161906 77 257 10.0 12.0 0.00 0.00 0.00
20260510161401 76 232 11.0 17.0 0.00 0.00 0.00
20260510160856 78 191 14.0 10.0 0.00 0.00 0.00
20260510160349 78 226 5.0 14.0 0.00 0.00 0.00
20260510155844 78 238 14.0 13.0 0.00 0.00 0.00
20260510155339 79 338 3.0 13.0 0.00 0.00 0.00
20260510154835 78 295 4.0 13.0 0.00 0.00 0.00
20260510154330 76 260 8.0 11.0 0.00 0.00 0.00
20260510153825 77 246 9.0 11.0 0.00 0.00 0.00
20260510153317 77 281 8.0 12.0 0.00 0.00 0.00
20260510152813 76 211 10.0 10.0 0.00 0.00 0.00
20260510152308 77 270 5.0 8.0 0.00 0.00 0.00
20260510151803 76 207 2.0 9.0 0.00 0.00 0.00
20260510151258 73 207 8.0 10.0 0.00 0.00 0.00
20260510150754 75 120 9.0 12.0 0.00 0.00 0.00
20260510150245 72 205 5.0 14.0 0.00 0.00 0.00
20260510144731 75 228 8.0 12.0 0.00 0.00 0.00
20260510144226 74 203 3.0 10.0 0.00 0.00 0.00
20260510143721 73 184 4.0 10.0 0.00 0.00 0.00
20260510143214 75 222 10.0 11.0 0.00 0.00 0.00
20260510142709 74 184 4.0 10.0 0.00 0.00 0.00
20260510142204 73 100 1.0 8.0 0.00 0.00 0.00
20260510141659 71 169 6.0 8.0 0.00 0.00 0.00
20260510141154 72 124 6.0 8.0 0.00 0.00 0.00
20260510140650 70 214 4.0 8.0 0.00 0.00 0.00
20260510140142 71 167 4.0 8.0 0.00 0.00 0.00
20260510135131 69 226 4.0 7.0 0.00 0.00 0.00
20260510134626 69 212 2.0 4.0 0.00 0.00 0.00
20260510134122 68 257 0.0 6.0 0.00 0.00 0.00
20260510133617 68 221 3.0 6.0 0.00 0.00 0.00
20260510133109 67 252 4.0 5.0 0.00 0.00 0.00
20260510132604 65 113 5.0 6.0 0.00 0.00 0.00
20260510132059 64 176 2.0 5.0 0.00 0.00 0.00
20260510131554 62 127 2.0 4.0 0.00 0.00 0.00
20260510131049 62 52 0.0 5.0 0.00 0.00 0.00
20260510130037 60 145 2.0 3.0 0.00 0.00 0.00
20260510125532 59 195 1.0 3.0 0.00 0.00 0.00
20260510125027 59 169 1.0 3.0 0.00 0.00 0.00
20260510124612 58 190 2.0 0.0 0.00 0.00 0.00
20260510124522 58 190 2.0 0.0 0.00 0.00 0.00
20260510124017 58 117 0.0 0.0 0.00 0.00 0.00
20260510123513 58 117 0.0 2.0 0.00 0.00 0.00
20260510123005 56 117 0.0 2.0 0.00 0.00 0.00
20260510122500 55 42 0.0 4.0 0.00 0.00 0.00
20260510121955 55 62 0.0 0.0 0.00 0.00 0.00
20260510121450 54 62 0.0 0.0 0.00 0.00 0.00
20260510120945 55 62 0.0 0.0 0.00 0.00 0.00
20260510120440 53 62 0.0 0.0 0.00 0.00 0.00
20260510115932 53 62 0.0 0.0 0.00 0.00 0.00
20260510114922 53 62 0.0 0.0 0.00 0.00 0.00
20260510114417 52 62 0.0 0.0 0.00 0.00 0.00
20260510113912 51 62 0.0 0.0 0.00 0.00 0.00
20260510113407 52 62 0.0 1.0 0.00 0.00 0.00
20260510112859 50 101 0.0 0.0 0.00 0.00 0.00
20260510112354 49 101 0.0 0.0 0.00 0.00 0.00
20260510111849 51 101 0.0 0.0 0.00 0.00 0.00
20260510111344 49 101 0.0 0.0 0.00 0.00 0.00
20260510110839 49 101 0.0 0.0 0.00 0.00 0.00
20260510110333 49 101 0.0 0.0 0.00 0.00 0.00
20260510105825 48 101 0.0 0.0 0.00 0.00 0.00
20260510105320 48 101 0.0 0.0 0.00 0.00 0.00
20260510104815 45 101 0.0 0.0 0.00 0.00 0.00
20260510104310 46 101 0.0 0.0 0.00 0.00 0.00
20260510103805 46 101 0.0 0.0 0.00 0.00 0.00
20260510103259 45 101 0.0 0.0 0.00 0.00 0.00
20260510102751 45 101 0.0 0.0 0.00 0.00 0.00
20260510102245 45 101 0.0 0.0 0.00 0.00 0.00
20260510101740 45 101 0.0 0.0 0.00 0.00 0.00
20260510101235 44 101 0.0 0.0 0.00 0.00 0.00
20260510100730 46 101 0.0 0.0 0.00 0.00 0.00
20260510095211 45 101 0.0 0.0 0.00 0.00 0.00
20260510094706 46 101 0.0 0.0 0.00 0.00 0.00
20260510094201 46 101 0.0 0.0 0.00 0.00 0.00
20260510093656 46 101 0.0 0.0 0.00 0.00 0.00
20260510093151 45 101 0.0 0.0 0.00 0.00 0.00
20260510092137 45 101 0.0 0.0 0.00 0.00 0.00
20260510091632 45 101 0.0 0.0 0.00 0.00 0.00
20260510091127 44 101 0.0 0.0 0.00 0.00 0.00
20260510090622 45 101 0.0 0.0 0.00 0.00 0.00
20260510090117 46 101 0.0 0.0 0.00 0.00 0.00
20260510085609 46 101 0.0 0.0 0.00 0.00 0.00
20260510085104 47 101 0.0 4.0 0.00 0.00 0.00
20260510084558 46 101 0.0 0.0 0.00 0.00 0.00
20260510084052 46 295 0.0 0.0 0.00 0.00 0.00
20260510083547 46 295 0.0 0.0 0.00 0.00 0.00
20260510083041 45 295 0.0 0.0 0.00 0.00 0.00
20260510082533 45 295 0.0 0.0 0.00 0.00 0.00
20260510081523 45 295 0.0 0.0 0.00 0.00 0.00
20260510081017 46 295 0.0 0.0 0.00 0.00 0.00
20260510080512 45 295 0.0 0.0 0.00 0.00 0.00
20260510080007 45 295 0.0 0.0 0.00 0.00 0.00
20260510075459 45 295 0.0 0.0 0.00 0.00 0.00
20260510074954 45 295 0.0 1.0 0.00 0.00 0.00
20260510074449 46 295 1.0 0.0 0.00 0.00 0.00
20260510073944 45 316 0.0 0.0 0.00 0.00 0.00
20260510073439 44 316 0.0 0.0 0.00 0.00 0.00
20260510072934 45 316 0.0 0.0 0.00 0.00 0.00
20260510072426 44 316 0.0 0.0 0.00 0.00 0.00
20260510071921 45 316 0.0 0.0 0.00 0.00 0.00
20260510071416 45 316 0.0 0.0 0.00 0.00 0.00
20260510070911 46 316 0.0 0.0 0.00 0.00 0.00
20260510070406 45 316 0.0 0.0 0.00 0.00 0.00
20260510065901 45 316 0.0 0.0 0.00 0.00 0.00
20260510065353 46 316 0.0 0.0 0.00 0.00 0.00
20260510064847 44 316 0.0 0.0 0.00 0.00 0.00
20260510064342 45 316 0.0 0.0 0.00 0.00 0.00
20260510063837 45 316 0.0 0.0 0.00 0.00 0.00
20260510063332 47 316 0.0 0.0 0.00 0.00 0.00
20260510062827 46 316 0.0 0.0 0.00 0.00 0.00
20260510062319 47 316 0.0 0.0 0.00 0.00 0.00
20260510061814 46 316 0.0 0.0 0.00 0.00 0.00
20260510061309 46 316 0.0 0.0 0.00 0.00 0.00
20260510060804 46 316 0.0 0.0 0.00 0.00 0.00
20260510060259 46 316 0.0 0.0 0.00 0.00 0.00
20260510055754 47 316 0.0 0.0 0.00 0.00 0.00
20260510055245 46 316 0.0 0.0 0.00 0.00 0.00
20260510054740 47 316 0.0 0.0 0.00 0.00 0.00
20260510054234 46 316 0.0 0.0 0.00 0.00 0.00
20260510053729 47 316 0.0 0.0 0.00 0.00 0.00
20260510053224 46 316 0.0 0.0 0.00 0.00 0.00
20260510052719 48 316 0.0 0.0 0.00 0.00 0.00
20260510052211 46 316 0.0 0.0 0.00 0.00 0.00
20260510051706 47 316 0.0 0.0 0.00 0.00 0.00
20260510051201 47 316 0.0 0.0 0.00 0.00 0.00
20260510050656 47 316 0.0 0.0 0.00 0.00 0.00
20260510050151 48 316 0.0 0.0 0.00 0.00 0.00
20260510045646 48 316 0.0 0.0 0.00 0.00 0.00
20260510045137 48 316 0.0 0.0 0.00 0.00 0.00
20260510044632 48 316 0.0 0.0 0.00 0.00 0.00
20260510044127 48 316 0.0 0.0 0.00 0.00 0.00
20260510043622 49 316 0.0 0.0 0.00 0.00 0.00
20260510043117 49 316 0.0 0.0 0.00 0.00 0.00
20260510042612 49 316 0.0 0.0 0.00 0.00 0.00
20260510042104 49 316 0.0 0.0 0.00 0.00 0.00
20260510041559 48 316 0.0 0.0 0.00 0.00 0.00
20260510041054 49 316 0.0 0.0 0.00 0.00 0.00
20260510040548 48 316 0.0 0.0 0.00 0.00 0.00
20260510040043 49 316 0.0 0.0 0.00 0.00 0.00
20260510035538 48 316 0.0 0.0 0.00 0.00 0.00
20260510035030 50 316 0.0 0.0 0.00 0.00 0.00
20260510034525 50 316 0.0 0.0 0.00 0.00 0.00
20260510034019 51 316 0.0 0.0 0.00 0.00 0.00
20260510033009 50 316 0.0 0.0 0.00 0.00 0.00
20260510032504 50 316 0.0 0.0 0.00 0.00 0.00
20260510031956 50 316 0.0 0.0 0.00 0.00 0.00
20260510031451 49 316 0.0 0.0 0.00 0.00 0.00
20260510030946 50 316 0.0 0.0 0.00 0.00 0.00
20260510030441 50 316 0.0 0.0 0.00 0.00 0.00
20260510025936 50 316 0.0 0.0 0.00 0.00 0.00
20260510025431 51 316 0.0 0.0 0.00 0.00 0.00
20260510024923 52 316 0.0 0.0 0.00 0.00 0.00
20260510024418 52 316 0.0 0.0 0.00 0.00 0.00
20260510023913 52 316 0.0 0.0 0.00 0.00 0.00
20260510023408 53 316 0.0 0.0 0.00 0.00 0.00
20260510022903 52 316 0.0 0.0 0.00 0.00 0.00
20260510022359 53 316 0.0 0.0 0.00 0.00 0.00
20260510021851 52 316 0.0 0.0 0.00 0.00 0.00
20260510021346 52 316 0.0 0.0 0.00 0.00 0.00
20260510020336 53 316 0.0 0.0 0.00 0.00 0.00
20260510015831 52 316 0.0 0.0 0.00 0.00 0.00
20260510015326 53 316 0.0 0.0 0.00 0.00 0.00
20260510014819 53 316 0.0 0.0 0.00 0.00 0.00
20260510014314 54 316 0.0 0.0 0.00 0.00 0.00
20260510013809 53 316 0.0 0.0 0.00 0.00 0.00
20260510013304 54 316 0.0 0.0 0.00 0.00 0.00
20260510012759 53 316 0.0 0.0 0.00 0.00 0.00
20260510011747 56 316 0.0 2.0 0.00 0.00 0.00
20260510011242 55 347 0.0 0.0 0.00 0.00 0.00
20260510010737 56 347 0.0 0.0 0.00 0.00 0.00
20260510010232 57 347 0.0 0.0 0.00 0.00 0.00
20260510005726 58 347 0.0 1.0 0.00 0.00 0.00
20260510005222 57 8 0.0 0.0 0.00 0.00 0.00
20260510004714 58 8 0.0 1.0 0.00 0.00 0.00
20260510004209 57 281 0.0 1.0 0.00 0.00 0.00
20260510003704 59 291 1.0 1.0 0.00 0.00 0.00
20260510003200 59 17 0.0 0.0 0.00 0.00 0.00
20260510002655 59 17 0.0 0.0 0.00 0.00 0.00
20260510002150 61 17 0.0 0.0 0.00 0.00 0.00
20260510001642 62 17 0.0 0.0 0.00 0.00 0.00
20260510001138 62 17 0.0 0.0 0.00 0.00 0.00
20260510000633 64 17 0.0 2.0 0.00 0.00 0.00
20260510000128 63 34 0.0 0.0 0.00 0.00 0.00
20260509235623 64 53 0.0 0.0 0.00 0.00 0.00
20260509235118 66 53 0.0 2.0 0.00 0.00 0.00
20260509234609 66 53 0.0 1.0 0.00 0.00 0.00
20260509234104 68 18 0.0 2.0 0.00 0.00 0.00
20260509233559 68 21 0.0 5.0 0.00 0.00 0.00
20260509233055 67 28 0.0 6.0 0.00 0.00 0.00
20260509232550 69 359 4.0 2.0 0.00 0.00 0.00
20260509232045 70 8 0.0 5.0 0.00 0.00 0.00
20260509231537 70 264 1.0 3.0 0.00 0.00 0.00
20260509231032 72 345 0.0 3.0 0.00 0.00 0.00
20260509230528 71 345 1.0 3.0 0.00 0.00 0.00
20260509230023 72 340 0.0 4.0 0.00 0.00 0.00
20260509225518 71 8 0.0 3.0 0.00 0.00 0.00
20260509225013 73 10 1.0 2.0 0.00 0.00 0.00
20260509224505 72 23 0.0 4.0 0.00 0.00 0.00
20260509224000 73 46 1.0 4.0 0.00 0.00 0.00
20260509223454 73 51 0.0 5.0 0.00 0.00 0.00
20260509222445 72 51 0.0 3.0 0.00 0.00 0.00
20260509221940 72 6 0.0 4.0 0.00 0.00 0.00
20260509221432 73 46 0.0 6.0 0.00 0.00 0.00
20260509220928 76 10 1.0 4.0 0.00 0.00 0.00
20260509220423 78 25 2.0 5.0 0.00 0.00 0.00
20260509215413 77 58 0.0 7.0 0.00 0.00 0.00
20260509214908 77 28 2.0 5.0 0.00 0.00 0.00
20260509214401 79 89 0.0 6.0 0.00 0.00 0.00
20260509213856 78 17 3.0 6.0 0.00 0.00 0.00
20260509213351 78 14 4.0 6.0 0.00 0.00 0.00
20260509212846 78 23 0.0 7.0 0.00 0.00 0.00
20260509212341 77 34 1.0 9.0 0.00 0.00 0.00
20260509211836 75 52 1.0 7.0 0.00 0.00 0.00
20260509211329 75 27 1.0 6.0 0.00 0.00 0.00
20260509210824 73 23 0.0 6.0 0.00 0.00 0.00
20260509210319 74 11 1.0 8.0 0.00 0.00 0.00
20260509205815 74 295 2.0 6.0 0.00 0.00 0.00
20260509205310 74 243 1.0 6.0 0.00 0.00 0.00
20260509204805 73 27 1.0 6.0 0.00 0.00 0.00
20260509204257 72 295 1.0 2.0 0.00 0.00 0.00
20260509203248 72 281 2.0 5.0 0.00 0.00 0.00
20260509202743 73 304 0.0 3.0 0.00 0.00 0.00
20260509201734 73 307 1.0 2.0 0.00 0.00 0.00
20260509201226 73 60 0.0 6.0 0.00 0.00 0.00
20260509200722 72 198 3.0 7.0 0.00 0.00 0.00
20260509195712 71 141 2.0 8.0 0.00 0.00 0.00
20260509195208 74 118 5.0 12.0 0.00 0.00 0.00
20260509194703 74 236 4.0 8.0 0.00 0.00 0.00
20260509194155 75 141 3.0 9.0 0.00 0.00 0.00
20260509193146 78 138 4.0 2.0 0.00 0.00 0.00
20260509192137 73 163 1.0 7.0 0.00 0.00 0.00
20260509191632 76 221 5.0 8.0 0.00 0.00 0.00
20260509191124 73 105 5.0 7.0 0.00 0.00 0.00
20260509190620 73 214 1.0 5.0 0.00 0.00 0.00
20260509190115 73 113 2.0 5.0 0.00 0.00 0.00
20260509185610 76 177 5.0 5.0 0.00 0.00 0.00
20260509185106 78 108 2.0 6.0 0.00 0.00 0.00
20260509184601 75 1 0.0 7.0 0.00 0.00 0.00
20260509184053 76 134 3.0 6.0 0.00 0.00 0.00
20260509183549 75 167 2.0 10.0 0.00 0.00 0.00
20260509183044 75 20 2.0 7.0 0.00 0.00 0.00
20260509182539 77 124 4.0 8.0 0.00 0.00 0.00
20260509182035 74 79 2.0 6.0 0.00 0.00 0.00
20260509181530 76 73 0.0 5.0 0.00 0.00 0.00
20260509181022 72 87 1.0 4.0 0.00 0.00 0.00
20260509180518 73 31 1.0 5.0 0.00 0.00 0.00
20260509180012 73 38 0.0 5.0 0.00 0.00 0.00
20260509175507 70 304 0.0 4.0 0.00 0.00 0.00
20260509175003 70 342 0.0 2.0 0.00 0.00 0.00
20260509174458 73 83 0.0 4.0 0.00 0.00 0.00
20260509173949 72 48 0.0 4.0 0.00 0.00 0.00
20260509173444 69 31 1.0 4.0 0.00 0.00 0.00
20260509172940 68 60 0.0 2.0 0.00 0.00 0.00
20260509172435 68 63 0.0 2.0 0.00 0.00 0.00
20260509171930 67 35 0.0 2.0 0.00 0.00 0.00
20260509171426 66 32 1.0 2.0 0.00 0.00 0.00
20260509170918 67 53 0.0 3.0 0.00 0.00 0.00
20260509170413 66 41 2.0 3.0 0.00 0.00 0.00
20260509165908 66 35 1.0 1.0 0.00 0.00 0.00
20260509165404 68 65 1.0 5.0 0.00 0.00 0.00
20260509164859 68 13 4.0 7.0 0.00 0.00 0.00
20260509164354 70 288 0.0 6.0 0.00 0.00 0.00